Terminal Aerodrome Forecast
Issued by NWS

Home | Current Version | Previous Version | Text Only | Print | Product List | Glossary On
Versions: 1 2 3 4 5 6 7 8 9 10 11 12 13 14 15 16 17 18 19 20 21 22 23 24 25 26 27 28 29 30 31 32 33 34 35 36 37 38 39 40 41
000
FTUS41 KRNK 231133
TAFBCB
TAF
KBCB 231133Z 2312/2412 31004KT P6SM SCT250
      TEMPO 2312/2313 3SM BR SCT001
     FM231400 08004KT P6SM SCT250
     FM240100 07003KT P6SM BKN200=

USA.gov is the U.S. government's official web portal to all federal, state and local government web resources and services.